Location: ???????
(54.9996°N, 37.9529°E)
Time: 15:51:20
(UTC+00:00)

Cosmos 1633 Rocket - Visible Passes

Search period start: 19 July 2024 00:00
Search period end: 29 July 2024 00:00
Orbit: 603 x 620 km, 82.5° (Epoch: 19 July)

Date Brightness Start Highest point End Pass type
(mag) Time Alt. Az. Time Alt. Az. Time Alt. Az.
21 Jul 5.9 00:20:20 10° ESE 00:22:20 13° E 00:24:19 10° NE visible
24 Jul 6.0 23:43:19 10° E 23:44:37 11° ENE 23:45:54 10° ENE visible
25 Jul 5.6 23:56:26 10° SE 23:59:16 17° E 00:02:07 10° NE visible
27 Jul 5.0 00:10:24 10° SE 00:14:00 26° E 00:17:37 10° NNE visible
28 Jul 4.3 00:24:45 10° SSE 00:28:48 40° E 00:32:52 10° NNE visible
